| time (UTC) | temp C | wind direction | speed KPH | gust KPH | rain 1hr cm | rain 24hr cm | rain mn cm | humidity % | barometer mb |
| 20260504195712 | 23 | 247 | 6.4 | 16.1 | 0.00 | 0.00 | 0.00 | 25 | 1010.5 |
| 20260504193910 | 24 | 205 | 14.5 | 20.9 | 0.00 | 0.00 | 0.00 | 25 | 1010.7 |
| 20260504193812 | 24 | 223 | 16.1 | 22.5 | 0.00 | 0.00 | 0.00 | 25 | 1010.7 |
| 20260504192811 | 24 | 224 | 19.3 | 27.4 | 0.00 | 0.00 | 0.00 | 26 | 1010.7 |
| 20260504191909 | 24 | 238 | 17.7 | 22.5 | 0.00 | 0.00 | 0.00 | 25 | 1010.7 |
| 20260504190926 | 25 | 207 | 14.5 | 22.5 | 0.00 | 0.00 | 0.00 | 24 | 1010.9 |
| 20260504190811 | 25 | 182 | 11.3 | 20.9 | 0.00 | 0.00 | 0.00 | 24 | 1010.8 |
| 20260504185910 | 25 | 211 | 16.1 | 25.7 | 0.00 | 0.00 | 0.00 | 23 | 1010.7 |
| 20260504184928 | 26 | 101 | 1.6 | 6.4 | 0.00 | 0.00 | 0.00 | 22 | 1010.9 |
| 20260504183911 | 25 | 191 | 12.9 | 20.9 | 0.00 | 0.00 | 0.00 | 21 | 1011.3 |
| 20260504181010 | 25 | 127 | 4.8 | 9.7 | 0.00 | 0.00 | 0.00 | 26 | 1011.5 |
| 20260504180929 | 25 | 121 | 6.4 | 12.9 | 0.00 | 0.00 | 0.00 | 26 | 1011.5 |
| 20260504175927 | 24 | 22 | 4.8 | 9.7 | 0.00 | 0.00 | 0.00 | 28 | 1011.5 |
| 20260504174926 | 24 | 104 | 3.2 | 8.0 | 0.00 | 0.00 | 0.00 | 28 | 1011.8 |
| 20260504173913 | 24 | 98 | 0.0 | 3.2 | 0.00 | 0.00 | 0.00 | 30 | 1011.9 |
| 20260504172928 | 23 | 157 | 0.0 | 1.6 | 0.00 | 0.00 | 0.00 | 30 | 1011.9 |
| 20260504171946 | 23 | 157 | 1.6 | 6.4 | 0.00 | 0.00 | 0.00 | 32 | 1011.9 |
| 20260504171030 | 23 | 191 | 3.2 | 6.4 | 0.00 | 0.00 | 0.00 | 32 | 1012.0 |
| 20260504160329 | 22 | 157 | 6.4 | 12.9 | 0.00 | 0.00 | 0.00 | 36 | 1012.2 |
| 20260504160249 | 22 | 160 | 1.6 | 11.3 | 0.00 | 0.00 | 0.00 | 37 | 1012.2 |
| 20260504150231 | 20 | 83 | 3.2 | 6.4 | 0.00 | 0.00 | 0.00 | 43 | 1012.1 |
| 20260504141230 | 15 | 292 | 0.0 | 0.0 | 0.00 | 0.00 | 0.00 | 56 | 1012.7 |
| 20260504140245 | 15 | 292 | 0.0 | 1.6 | 0.00 | 0.00 | 0.00 | 57 | 1012.8 |
| 20260504110429 | 16 | 344 | 1.6 | 1.6 | 0.00 | 0.00 | 0.00 | 54 | 1012.0 |
| 20260504081829 | 16 | 296 | 3.2 | 6.4 | 0.00 | 0.00 | 0.00 | 48 | 1012.5 |
| 20260504060145 | 20 | 270 | 3.2 | 6.4 | 0.00 | 0.00 | 0.00 | 38 | 1012.1 |
| 20260504045423 | 20 | 81 | 3.2 | 11.3 | 0.00 | 0.00 | 0.00 | 36 | 1012.1 |
| 20260504044439 | 20 | 66 | 6.4 | 11.3 | 0.00 | 0.00 | 0.00 | 36 | 1011.9 |
| 20260504043440 | 20 | 111 | 1.6 | 4.8 | 0.00 | 0.00 | 0.00 | 34 | 1012.4 |
| 20260504042423 | 20 | 80 | 3.2 | 11.3 | 0.00 | 0.00 | 0.00 | 34 | 1011.6 |
| 20260504042325 | 21 | 138 | 1.6 | 11.3 | 0.00 | 0.00 | 0.00 | 34 | 1011.6 |
| 20260504042223 | 21 | 21 | 3.2 | 11.3 | 0.00 | 0.00 | 0.00 | 34 | 1011.5 |
| 20260504041223 | 21 | 107 | 0.0 | 3.2 | 0.00 | 0.00 | 0.00 | 32 | 1011.6 |
| 20260504040223 | 21 | 67 | 0.0 | 1.6 | 0.00 | 0.00 | 0.00 | 32 | 1011.5 |
| 20260504035240 | 21 | 74 | 6.4 | 9.7 | 0.00 | 0.00 | 0.00 | 32 | 1011.4 |
| 20260504034239 | 22 | 27 | 9.7 | 17.7 | 0.00 | 0.00 | 0.00 | 32 | 1011.2 |
| 20260504034122 | 22 | 31 | 6.4 | 12.9 | 0.00 | 0.00 | 0.00 | 32 | 1011.1 |
| 20260504033222 | 22 | 62 | 8.0 | 12.9 | 0.00 | 0.00 | 0.00 | 32 | 1011.1 |
| 20260504030424 | 22 | 63 | 6.4 | 12.9 | 0.00 | 0.00 | 0.00 | 32 | 1010.7 |
| 20260504025423 | 22 | 64 | 17.7 | 27.4 | 0.00 | 0.00 | 0.00 | 31 | 1010.6 |
| 20260504024439 | 23 | 56 | 6.4 | 12.9 | 0.00 | 0.00 | 0.00 | 30 | 1010.5 |
| 20260504023524 | 23 | 62 | 14.5 | 19.3 | 0.00 | 0.00 | 0.00 | 28 | 1010.4 |
| 20260504022521 | 23 | 77 | 12.9 | 25.7 | 0.00 | 0.00 | 0.00 | 26 | 1010.2 |
| 20260504021538 | 24 | 109 | 6.4 | 9.7 | 0.00 | 0.00 | 0.00 | 23 | 1010.3 |
| 20260504015541 | 25 | 94 | 6.4 | 6.4 | 0.00 | 0.00 | 0.00 | 23 | 1009.9 |
| 20260504014538 | 25 | 157 | 0.0 | 1.6 | 0.00 | 0.00 | 0.00 | 22 | 1009.8 |
| 20260504013538 | 25 | 128 | 3.2 | 4.8 | 0.00 | 0.00 | 0.00 | 22 | 1009.5 |
| 20260504012524 | 25 | 223 | 11.3 | 16.1 | 0.00 | 0.00 | 0.00 | 22 | 1010.2 |
| 20260504011521 | 25 | 191 | 8.0 | 12.9 | 0.00 | 0.00 | 0.00 | 23 | 1010.1 |
| 20260504010525 | 25 | 127 | 3.2 | 11.3 | 0.00 | 0.00 | 0.00 | 22 | 1010.0 |
| 20260504005540 | 26 | 91 | 12.9 | 22.5 | 0.00 | 0.00 | 0.00 | 21 | 1009.4 |
| 20260504004523 | 26 | 124 | 12.9 | 22.5 | 0.00 | 0.00 | 0.00 | 19 | 1010.2 |
| 20260504003540 | 26 | 118 | 8.0 | 12.9 | 0.00 | 0.00 | 0.00 | 19 | 1010.1 |
| 20260504002524 | 26 | 114 | 1.6 | 6.4 | 0.00 | 0.00 | 0.00 | 19 | 1010.1 |
| 20260504001523 | 26 | 129 | 6.4 | 9.7 | 0.00 | 0.00 | 0.00 | 17 | 1010.1 |
| 20260504000523 | 26 | 238 | 1.6 | 6.4 | 0.00 | 0.00 | 0.00 | 17 | 1010.3 |
| 20260503235622 | 26 | 53 | 3.2 | 9.7 | 0.00 | 0.00 | 0.00 | 18 | 1009.8 |
| 20260503233622 | 26 | 123 | 8.0 | 22.5 | 0.00 | 0.00 | 0.00 | 18 | 1010.0 |
| 20260503232640 | 26 | 115 | 12.9 | 22.5 | 0.00 | 0.00 | 0.00 | 17 | 1009.9 |
| 20260503231639 | 27 | 140 | 19.3 | 38.6 | 0.00 | 0.00 | 0.00 | 14 | 1009.6 |
| 20260503230637 | 28 | 111 | 8.0 | 16.1 | 0.00 | 0.00 | 0.00 | 13 | 1009.0 |
| 20260503224738 | 28 | 175 | 4.8 | 8.0 | 0.00 | 0.00 | 0.00 | 13 | 1008.8 |
| 20260503223821 | 29 | 127 | 4.8 | 6.4 | 0.00 | 0.00 | 0.00 | 12 | 1008.9 |
| 20260503222840 | 30 | 147 | 6.4 | 8.0 | 0.00 | 0.00 | 0.00 | 12 | 1009.0 |
| 20260503221923 | 30 | 145 | 0.0 | 1.6 | 0.00 | 0.00 | 0.00 | 12 | 1009.2 |
| 20260503220924 | 30 | 149 | 4.8 | 8.0 | 0.00 | 0.00 | 0.00 | 11 | 1009.5 |
| 20260503215940 | 30 | 204 | 8.0 | 11.3 | 0.00 | 0.00 | 0.00 | 11 | 1009.5 |
| 20260503214922 | 30 | 157 | 4.8 | 6.4 | 0.00 | 0.00 | 0.00 | 11 | 1009.8 |
| 20260503213924 | 30 | 292 | 1.6 | 3.2 | 0.00 | 0.00 | 0.00 | 10 | 1010.1 |
| 20260503212921 | 30 | 225 | 1.6 | 3.2 | 0.00 | 0.00 | 0.00 | 11 | 1010.4 |
| 20260503211940 | 31 | 267 | 6.4 | 11.3 | 0.00 | 0.00 | 0.00 | 11 | 1010.6 |
| 20260503210938 | 31 | 203 | 9.7 | 14.5 | 0.00 | 0.00 | 0.00 | 11 | 1010.7 |
| 20260503205921 | 31 | 208 | 9.7 | 17.7 | 0.00 | 0.00 | 0.00 | 11 | 1011.1 |
| 20260503204940 | 31 | 201 | 4.8 | 8.0 | 0.00 | 0.00 | 0.00 | 11 | 1011.1 |
| 20260503204021 | 30 | 337 | 3.2 | 4.8 | 0.00 | 0.00 | 0.00 | 11 | 1011.5 |
| 20260503203121 | 32 | 159 | 8.0 | 12.9 | 0.00 | 0.00 | 0.00 | 10 | 1011.7 |
| 20260503203022 | 31 | 201 | 8.0 | 11.3 | 0.00 | 0.00 | 0.00 | 11 | 1011.7 |
| 20260503202039 | 30 | 284 | 0.0 | 3.2 | 0.00 | 0.00 | 0.00 | 11 | 1011.9 |
| 20260503201124 | 30 | 303 | 1.6 | 6.4 | 0.00 | 0.00 | 0.00 | 12 | 1012.0 |